Flag for Oman Weather past 2 weeks in Salalah, Oman

Now
70 °F

Clear.


Feels Like: 70 °F
Forecast: 58 / 85 °F
Wind: 8 mph from Northwest

Location: Salalah Airport

Current Time: Feb 2, 2015 at 1:55:09 AM

Latest Report: Feb 2, 2015 at 12:50 AM


Visibility: 10 mi

Pressure: 29.98 "Hg

Humidity: 57%

Dew point: 54 °F

Location of SalalahLocation

Historic Weather in Salalah — Graph

°F

Salalah temperature yesterday

Maximum temperature yesterday: 79 °F (at 11:50 AM)
Minimum temperature yesterday: 66 °F (at 5:50 AM)
Average temperature yesterday: 73 °F

Past Weeks' High & Low Weather Summary

 TemperatureHumidityPressure
High81 °F (Jan 18, 11:50 AM)78% (Jan 18, 6:50 AM)30.24 "Hg (Jan 18, 6:50 AM)
Low61 °F (Jan 22, 6:50 AM)8% (Jan 21, 2:50 PM)29.89 "Hg (Jan 19, 3:50 PM)
Average72 °F46%30.07 "Hg
* Reported Jan 17 11:50 PM — Feb 1 11:50 PM, Salalah, Weather by CustomWeather, © 2014

Note: Actual official high and low records may vary slightly from our data, if they occured in-between our weather recording intervals... More about our weather records

Advertising

Salalah weather history for previous 24 hours

 ConditionsComfort  
Time TempWeatherWind HumidityBarometerVisibility
11:50 PM
Feb 1
70 °FClear.3 mph64%30.01 "Hg10 mi
10:50 PM72 °FClear.3 mph65%30.01 "Hg10 mi
9:50 PM72 °FMild.No wind73%30.01 "HgN/A
8:50 PM73 °FClear.No wind69%30.04 "Hg10 mi
7:50 PM73 °FMild.No wind69%30.01 "HgN/A
6:50 PM75 °FPassing clouds.5 mph65%30.01 "HgN/A
5:50 PM77 °FPassing clouds.6 mph57%29.98 "HgN/A
4:50 PM79 °FPassing clouds.7 mph54%29.98 "HgN/A
3:50 PM79 °FWarm.8 mph51%29.95 "HgN/A
2:50 PM79 °FPassing clouds.10 mph58%29.98 "HgN/A
1:58 PM79 °FPartly sunny.102 mph54%29.98 "HgN/A
12:50 PM79 °FPartly sunny.9 mph51%30.01 "HgN/A
11:50 AM79 °FPartly sunny.6 mph54%30.04 "HgN/A
10:50 AM77 °FPassing clouds.5 mph51%30.07 "HgN/A
9:50 AM75 °FMild.5 mph54%30.07 "HgN/A
8:50 AM73 °FScattered clouds.No wind41%30.07 "HgN/A
7:50 AM68 °FScattered clouds.5 mph49%30.07 "HgN/A
6:50 AM66 °FMild.1 mph64%30.04 "HgN/A
5:50 AM66 °FPassing clouds.2 mph68%30.04 "HgN/A
4:50 AM68 °FPassing clouds.2 mph73%30.04 "HgN/A
3:50 AM70 °FMild.5 mph69%30.04 "HgN/A
2:50 AM70 °FPassing clouds.7 mph69%30.04 "HgN/A
1:50 AM72 °FMild.3 mph69%30.04 "HgN/A
Weather by CustomWeather, © 2014

See weather overviewHow to use our weather pages